Time,TemperatureF,DewpointF,PressureIn,WindDirection,WindDirectionDegrees,WindSpeedMPH,WindSpeedGustMPH,Humidity,HourlyPrecipIn,Conditions,Clouds,dailyrainin,SolarRadiationWatts/m^2,SoftwareType,DateUTC
2013-04-04 00:00:00,41.9,29.0,30.22,West,271,3.0,6.0,60,0.00,,---,0.00,0.00,VWS V14.01,2013-04-04 05:00:00,
2013-04-04 00:02:00,41.9,29.5,30.22,West,273,3.0,5.0,61,0.00,,---,0.00,0.00,VWS V14.01,2013-04-04 05:02:00,
2013-04-04 00:07:00,41.9,29.5,30.22,West,277,2.0,5.0,61,0.00,,---,0.00,0.00,VWS V14.01,2013-04-04 05:07:00,
2013-04-04 00:12:00,41.9,29.0,30.21,West,277,2.0,5.0,60,0.00,,---,0.00,0.00,VWS V14.01,2013-04-04 05:12:00,
2013-04-04 00:17:00,42.1,29.2,30.21,West,277,3.0,5.0,60,0.00,,---,0.00,0.00,VWS V14.01,2013-04-04 05:17:00,
2013-04-04 00:23:00,41.9,29.0,30.21,West,277,4.0,5.0,60,0.00,,---,0.00,0.00,VWS V14.01,2013-04-04 05:23:00,
2013-04-04 00:28:00,41.9,29.5,30.21,West,278,3.0,6.0,61,0.00,,---,0.00,0.00,VWS V14.01,2013-04-04 05:28:00,
2013-04-04 00:30:00,41.9,29.5,30.21,West,278,2.0,6.0,61,0.00,,---,0.00,0.00,VWS V14.01,2013-04-04 05:30:00,
2013-04-04 00:33:00,41.9,29.5,30.20,West,277,4.0,4.0,61,0.00,,---,0.00,0.00,VWS V14.01,2013-04-04 05:33:00,
2013-04-04 00:38:00,41.9,29.0,30.20,West,277,5.0,5.0,60,0.00,,---,0.00,0.00,VWS V14.01,2013-04-04 05:38:00,
2013-04-04 00:43:00,41.9,29.5,30.20,WNW,283,2.0,6.0,61,0.00,,---,0.00,0.00,VWS V14.01,2013-04-04 05:43:00,
2013-04-04 00:48:00,41.9,29.5,30.20,West,279,3.0,6.0,61,0.00,,---,0.00,0.00,VWS V14.01,2013-04-04 05:48:00,
2013-04-04 00:53:00,41.9,29.9,30.20,West,279,2.0,6.0,62,0.00,,---,0.00,0.00,VWS V14.01,2013-04-04 05:53:00,
2013-04-04 00:58:00,41.9,29.9,30.20,WNW,303,3.0,6.0,62,0.00,,---,0.00,0.00,VWS V14.01,2013-04-04 05:58:00,
2013-04-04 01:00:00,41.9,29.9,30.20,WNW,302,2.0,6.0,62,0.00,,---,0.00,0.00,VWS V14.01,2013-04-04 06:00:00,
2013-04-04 01:03:00,41.9,29.9,30.20,WNW,302,3.0,4.0,62,0.00,,---,0.00,0.00,VWS V14.01,2013-04-04 06:03:00,
2013-04-04 01:08:00,41.9,30.2,30.20,WNW,294,3.0,4.0,63,0.00,,---,0.00,0.00,VWS V14.01,2013-04-04 06:08:00,
2013-04-04 01:13:00,41.8,30.1,30.19,WNW,294,2.0,5.0,63,0.00,,---,0.00,0.00,VWS V14.01,2013-04-04 06:13:00,
2013-04-04 01:18:00,41.8,30.1,30.19,WNW,294,4.0,5.0,63,0.00,,---,0.00,0.00,VWS V14.01,2013-04-04 06:18:00,
2013-04-04 01:23:00,41.8,30.5,30.20,WNW,294,0.0,5.0,64,0.00,,---,0.00,0.00,VWS V14.01,2013-04-04 06:23:00,
2013-04-04 01:28:00,41.8,30.5,30.19,WNW,294,1.0,5.0,64,0.00,,---,0.00,0.00,VWS V14.01,2013-04-04 06:28:00,
2013-04-04 01:30:00,41.8,30.5,30.19,WNW,294,2.0,5.0,64,0.00,,---,0.00,0.00,VWS V14.01,2013-04-04 06:30:00,
2013-04-04 01:33:00,41.8,30.5,30.19,WNW,294,2.0,4.0,64,0.00,,---,0.00,0.00,VWS V14.01,2013-04-04 06:33:00,
2013-04-04 01:38:00,41.8,30.5,30.19,WNW,294,3.0,4.0,64,0.00,,---,0.00,0.00,VWS V14.01,2013-04-04 06:38:00,
2013-04-04 01:43:00,41.8,30.5,30.19,WNW,294,2.0,4.0,64,0.00,,---,0.00,0.00,VWS V14.01,2013-04-04 06:43:00,
2013-04-04 01:48:00,41.8,30.5,30.19,WNW,294,0.0,4.0,64,0.00,,---,0.00,0.00,VWS V14.01,2013-04-04 06:48:00,
2013-04-04 01:53:00,41.9,30.6,30.19,WNW,294,2.0,4.0,64,0.00,,---,0.00,0.00,VWS V14.01,2013-04-04 06:53:00,
2013-04-04 01:58:00,41.8,30.1,30.19,WNW,290,4.0,5.0,63,0.00,,---,0.00,0.00,VWS V14.01,2013-04-04 06:58:00,
2013-04-04 02:00:00,41.8,30.1,30.19,WNW,290,3.0,5.0,63,0.00,,---,0.00,0.00,VWS V14.01,2013-04-04 07:00:00,
2013-04-04 02:03:00,41.8,30.1,30.19,West,259,3.0,4.0,63,0.00,,---,0.00,0.00,VWS V14.01,2013-04-04 07:03:00,
2013-04-04 02:08:00,41.8,29.8,30.19,WSW,254,1.0,5.0,62,0.00,,---,0.00,0.00,VWS V14.01,2013-04-04 07:08:00,
2013-04-04 02:13:00,41.8,29.8,30.19,WSW,254,3.0,5.0,62,0.00,,---,0.00,0.00,VWS V14.01,2013-04-04 07:13:00,
2013-04-04 02:18:00,41.8,29.8,30.19,WSW,258,2.0,5.0,62,0.00,,---,0.00,0.00,VWS V14.01,2013-04-04 07:18:00,
2013-04-04 02:23:00,41.8,29.4,30.19,WSW,258,3.0,5.0,61,0.00,,---,0.00,0.00,VWS V14.01,2013-04-04 07:23:00,
2013-04-04 02:28:00,41.8,29.4,30.19,WSW,258,3.0,5.0,61,0.00,,---,0.00,0.00,VWS V14.01,2013-04-04 07:28:00,
2013-04-04 02:30:00,41.8,29.4,30.19,WSW,258,1.0,5.0,61,0.00,,---,0.00,0.00,VWS V14.01,2013-04-04 07:30:00,
2013-04-04 02:33:00,41.8,29.4,30.18,WSW,258,2.0,3.0,61,0.00,,---,0.00,0.00,VWS V14.01,2013-04-04 07:33:00,
2013-04-04 02:38:00,41.8,29.4,30.18,WSW,250,6.0,6.0,61,0.00,,---,0.00,0.00,VWS V14.01,2013-04-04 07:38:00,
2013-04-04 02:43:00,41.6,29.2,30.18,WSW,247,4.0,6.0,61,0.00,,---,0.00,0.00,VWS V14.01,2013-04-04 07:43:00,
2013-04-04 02:48:00,41.5,29.5,30.18,WSW,245,4.0,6.0,62,0.00,,---,0.00,0.00,VWS V14.01,2013-04-04 07:48:00,
2013-04-04 02:53:00,41.5,29.5,30.18,West,264,3.0,6.0,62,0.00,,---,0.00,0.00,VWS V14.01,2013-04-04 07:53:00,
2013-04-04 02:58:00,41.5,29.5,30.18,West,279,3.0,6.0,62,0.00,,---,0.00,0.00,VWS V14.01,2013-04-04 07:58:00,
2013-04-04 03:00:00,41.5,29.5,30.18,West,277,3.0,6.0,62,0.00,,---,0.00,0.00,VWS V14.01,2013-04-04 08:00:00,
2013-04-04 03:04:00,41.5,29.5,30.18,West,263,0.0,5.0,62,0.00,,---,0.00,0.00,VWS V14.01,2013-04-04 08:04:00,
2013-04-04 03:09:00,41.5,29.9,30.18,West,263,2.0,5.0,63,0.00,,---,0.00,0.00,VWS V14.01,2013-04-04 08:09:00,
2013-04-04 03:14:00,41.3,29.7,30.18,SW,234,3.0,5.0,63,0.00,,---,0.00,0.00,VWS V14.01,2013-04-04 08:14:00,
2013-04-04 03:19:00,41.2,30.0,30.18,SW,234,2.0,6.0,64,0.00,,---,0.00,0.00,VWS V14.01,2013-04-04 08:19:00,
2013-04-04 03:24:00,41.1,29.9,30.17,WSW,243,4.0,6.0,64,0.00,,---,0.00,0.00,VWS V14.01,2013-04-04 08:24:00,
2013-04-04 03:29:00,41.1,30.2,30.17,WSW,252,4.0,7.0,65,0.00,,---,0.00,0.00,VWS V14.01,2013-04-04 08:29:00,
2013-04-04 03:30:00,41.1,30.2,30.17,WSW,252,3.0,7.0,65,0.00,,---,0.00,0.00,VWS V14.01,2013-04-04 08:30:00,
2013-04-04 03:34:00,41.1,30.2,30.17,WSW,251,2.0,6.0,65,0.00,,---,0.00,0.00,VWS V14.01,2013-04-04 08:34:00,
2013-04-04 03:39:00,41.1,30.2,30.17,WSW,254,5.0,6.0,65,0.00,,---,0.00,0.00,VWS V14.01,2013-04-04 08:39:00,
2013-04-04 03:45:00,41.1,30.2,30.17,WSW,248,4.0,6.0,65,0.00,,---,0.00,0.00,VWS V14.01,2013-04-04 08:45:00,
2013-04-04 03:50:00,40.9,30.4,30.17,WSW,245,3.0,6.0,66,0.00,,---,0.00,0.00,VWS V14.01,2013-04-04 08:50:00,
2013-04-04 03:55:00,41.1,30.6,30.17,WSW,245,1.0,6.0,66,0.00,,---,0.00,0.00,VWS V14.01,2013-04-04 08:55:00,
2013-04-04 04:00:00,41.1,30.6,30.17,WSW,245,4.0,4.0,66,0.00,,---,0.00,0.00,VWS V14.01,2013-04-04 09:00:00,
2013-04-04 04:05:00,41.1,31.0,30.17,West,274,2.0,5.0,67,0.00,,---,0.00,0.00,VWS V14.01,2013-04-04 09:05:00,
2013-04-04 04:10:00,40.9,30.8,30.17,West,261,2.0,5.0,67,0.00,,---,0.00,0.00,VWS V14.01,2013-04-04 09:10:00,
2013-04-04 04:15:00,40.9,31.2,30.17,WSW,251,2.0,5.0,68,0.00,,---,0.00,0.00,VWS V14.01,2013-04-04 09:15:00,
2013-04-04 04:20:00,40.9,31.2,30.17,WSW,255,2.0,5.0,68,0.00,,---,0.00,0.00,VWS V14.01,2013-04-04 09:20:00,
2013-04-04 04:25:00,40.9,31.2,30.16,WSW,254,4.0,5.0,68,0.00,,---,0.00,0.00,VWS V14.01,2013-04-04 09:25:00,
2013-04-04 04:30:00,40.9,31.5,30.16,WSW,255,2.0,3.0,69,0.00,,---,0.00,0.00,VWS V14.01,2013-04-04 09:30:00,
2013-04-04 04:35:00,40.8,31.4,30.16,West,259,3.0,5.0,69,0.00,,---,0.00,0.00,VWS V14.01,2013-04-04 09:35:00,
2013-04-04 04:40:00,40.6,31.6,30.16,West,267,4.0,6.0,70,0.00,,---,0.00,0.00,VWS V14.01,2013-04-04 09:40:00,
2013-04-04 04:45:00,40.6,32.0,30.16,West,274,3.0,6.0,71,0.00,,---,0.00,0.00,VWS V14.01,2013-04-04 09:45:00,
2013-04-04 04:50:00,40.5,31.9,30.16,West,271,3.0,6.0,71,0.00,,---,0.00,0.00,VWS V14.01,2013-04-04 09:50:00,
2013-04-04 04:55:00,40.5,32.2,30.16,West,271,2.0,6.0,72,0.00,,---,0.00,0.00,VWS V14.01,2013-04-04 09:55:00,
2013-04-04 05:00:00,40.5,32.2,30.16,West,262,2.0,3.0,72,0.00,,---,0.00,0.00,VWS V14.01,2013-04-04 10:00:00,
2013-04-04 05:05:00,40.5,32.5,30.15,WNW,294,5.0,8.0,73,0.00,,---,0.00,0.00,VWS V14.01,2013-04-04 10:05:00,
2013-04-04 05:10:00,40.3,32.3,30.15,West,280,3.0,8.0,73,0.00,,---,0.00,0.00,VWS V14.01,2013-04-04 10:10:00,
2013-04-04 05:15:00,40.2,32.6,30.15,West,270,3.0,8.0,74,0.00,,---,0.00,0.00,VWS V14.01,2013-04-04 10:15:00,
2013-04-04 05:20:00,40.2,32.9,30.15,West,275,1.0,8.0,75,0.00,,---,0.00,0.00,VWS V14.01,2013-04-04 10:20:00,
2013-04-04 05:25:00,40.2,32.9,30.15,West,269,4.0,8.0,75,0.00,,---,0.00,0.00,VWS V14.01,2013-04-04 10:25:00,
2013-04-04 05:30:00,40.1,32.8,30.15,WSW,245,2.0,8.0,75,0.00,,---,0.00,0.00,VWS V14.01,2013-04-04 10:30:00,
2013-04-04 05:31:00,40.1,32.8,30.15,WSW,245,3.0,3.0,75,0.00,,---,0.00,0.00,VWS V14.01,2013-04-04 10:31:00,
2013-04-04 05:36:00,39.9,32.6,30.15,WSW,245,0.0,4.0,75,0.00,,---,0.00,0.00,VWS V14.01,2013-04-04 10:36:00,
2013-04-04 05:41:00,39.8,32.5,30.16,WSW,245,0.0,4.0,75,0.00,,---,0.00,0.00,VWS V14.01,2013-04-04 10:41:00,
2013-04-04 05:46:00,39.8,32.5,30.15,WSW,245,0.0,4.0,75,0.00,,---,0.00,0.00,VWS V14.01,2013-04-04 10:46:00,
2013-04-04 05:51:00,39.5,32.6,30.15,WSW,245,2.0,4.0,76,0.00,,---,0.00,0.00,VWS V14.01,2013-04-04 10:51:00,
2013-04-04 05:56:00,39.5,32.6,30.15,WSW,245,2.0,4.0,76,0.00,,---,0.00,0.00,VWS V14.01,2013-04-04 10:56:00,
2013-04-04 06:00:00,39.5,32.6,30.15,WSW,245,0.0,4.0,76,0.00,,---,0.00,0.00,VWS V14.01,2013-04-04 11:00:00,
2013-04-04 06:01:00,39.5,32.9,30.15,WSW,245,1.0,2.0,77,0.00,,---,0.00,0.00,VWS V14.01,2013-04-04 11:01:00,
2013-04-04 06:07:00,39.5,32.9,30.15,WSW,245,2.0,3.0,77,0.00,,---,0.00,0.00,VWS V14.01,2013-04-04 11:07:00,
2013-04-04 06:12:00,39.5,32.9,30.16,WSW,248,1.0,4.0,77,0.00,,---,0.00,0.00,VWS V14.01,2013-04-04 11:12:00,
2013-04-04 06:17:00,39.3,32.7,30.16,WSW,248,0.0,4.0,77,0.00,,---,0.00,0.00,VWS V14.01,2013-04-04 11:17:00,
2013-04-04 06:22:00,39.2,32.6,30.16,WSW,248,2.0,4.0,77,0.00,,---,0.00,0.00,VWS V14.01,2013-04-04 11:22:00,
2013-04-04 06:27:00,39.1,32.8,30.16,WSW,248,0.0,4.0,78,0.00,,---,0.00,0.00,VWS V14.01,2013-04-04 11:27:00,
2013-04-04 06:30:00,38.9,32.6,30.16,WSW,248,0.0,4.0,78,0.00,,---,0.00,0.00,VWS V14.01,2013-04-04 11:30:00,
2013-04-04 06:32:00,38.8,32.2,30.16,WSW,248,0.0,0.0,77,0.00,,---,0.00,0.00,VWS V14.01,2013-04-04 11:32:00,
2013-04-04 06:37:00,38.3,32.0,30.16,WSW,248,0.0,2.0,78,0.00,,---,0.00,0.00,VWS V14.01,2013-04-04 11:37:00,
2013-04-04 06:42:00,38.0,32.1,30.17,WSW,248,0.0,2.0,79,0.00,,---,0.00,0.00,VWS V14.01,2013-04-04 11:42:00,
2013-04-04 06:47:00,38.0,32.4,30.17,WSW,248,2.0,3.0,80,0.00,,---,0.00,0.00,VWS V14.01,2013-04-04 11:47:00,
2013-04-04 06:52:00,38.0,32.4,30.17,WSW,248,2.0,3.0,80,0.00,,---,0.00,0.00,VWS V14.01,2013-04-04 11:52:00,
2013-04-04 06:57:00,38.2,32.9,30.17,WSW,248,2.0,4.0,81,0.00,,---,0.00,0.00,VWS V14.01,2013-04-04 11:57:00,
2013-04-04 07:00:00,38.2,32.9,30.17,WSW,248,2.0,4.0,81,0.00,,---,0.00,0.00,VWS V14.01,2013-04-04 12:00:00,
2013-04-04 07:02:00,38.2,32.9,30.17,WSW,248,1.0,2.0,81,0.00,,---,0.00,0.00,VWS V14.01,2013-04-04 12:02:00,
2013-04-04 07:07:00,38.2,32.6,30.17,WSW,248,2.0,3.0,80,0.00,,---,0.00,0.00,VWS V14.01,2013-04-04 12:07:00,
2013-04-04 07:12:00,38.2,32.6,30.17,WSW,248,2.0,3.0,80,0.00,,---,0.00,0.00,VWS V14.01,2013-04-04 12:12:00,
2013-04-04 07:17:00,38.2,32.6,30.17,WSW,248,1.0,3.0,80,0.00,,---,0.00,5.00,VWS V14.01,2013-04-04 12:17:00,
2013-04-04 07:22:00,38.0,32.4,30.17,WSW,248,1.0,3.0,80,0.00,,---,0.00,11.00,VWS V14.01,2013-04-04 12:22:00,
2013-04-04 07:27:00,38.0,32.4,30.17,WSW,248,0.0,3.0,80,0.00,,---,0.00,14.00,VWS V14.01,2013-04-04 12:27:00,
2013-04-04 07:30:00,38.0,32.4,30.17,WSW,248,0.0,3.0,80,0.00,,---,0.00,18.00,VWS V14.01,2013-04-04 12:30:00,
2013-04-04 07:32:00,38.0,32.4,30.17,WSW,248,0.0,0.0,80,0.00,,---,0.00,21.00,VWS V14.01,2013-04-04 12:32:00,
2013-04-04 07:37:00,37.9,32.3,30.17,WSW,248,0.0,1.0,80,0.00,,---,0.00,26.00,VWS V14.01,2013-04-04 12:37:00,
2013-04-04 07:42:00,37.9,32.3,30.17,WSW,248,0.0,1.0,80,0.00,,---,0.00,28.00,VWS V14.01,2013-04-04 12:42:00,
2013-04-04 07:47:00,37.9,32.3,30.17,WSW,248,0.0,1.0,80,0.00,,---,0.00,53.00,VWS V14.01,2013-04-04 12:47:00,
2013-04-04 07:52:00,38.0,32.1,30.17,WSW,248,0.0,1.0,79,0.00,,---,0.00,67.00,VWS V14.01,2013-04-04 12:52:00,
2013-04-04 07:57:00,38.2,32.3,30.17,WSW,248,0.0,1.0,79,0.00,,---,0.00,79.00,VWS V14.01,2013-04-04 12:57:00,
2013-04-04 08:00:00,38.3,32.4,30.17,WSW,248,0.0,1.0,79,0.00,,---,0.00,86.00,VWS V14.01,2013-04-04 13:00:00,
2013-04-04 08:02:00,38.5,32.6,30.17,WSW,248,2.0,2.0,79,0.00,,---,0.00,95.00,VWS V14.01,2013-04-04 13:02:00,
2013-04-04 08:07:00,38.6,32.3,30.17,WSW,248,0.0,3.0,78,0.00,,---,0.00,107.00,VWS V14.01,2013-04-04 13:07:00,
2013-04-04 08:12:00,38.9,32.6,30.17,WSW,248,1.0,3.0,78,0.00,,---,0.00,128.00,VWS V14.01,2013-04-04 13:12:00,
2013-04-04 08:30:00,38.0,32.4,30.17,WSW,248,0.0,3.0,80,0.00,,---,0.00,18.00,VWS V14.01,2013-04-04 13:30:00,
2013-04-04 08:35:00,39.5,32.6,30.17,NW,305,5.0,5.0,76,0.00,,---,0.00,209.00,VWS V14.01,2013-04-04 13:35:00,
2013-04-04 08:40:00,39.3,32.4,30.17,WNW,303,5.0,8.0,76,0.00,,---,0.00,223.00,VWS V14.01,2013-04-04 13:40:00,
2013-04-04 08:45:00,39.3,32.4,30.17,NW,306,5.0,8.0,76,0.00,,---,0.00,241.00,VWS V14.01,2013-04-04 13:45:00,
2013-04-04 08:50:00,39.5,32.2,30.17,NNW,337,2.0,9.0,75,0.00,,---,0.00,255.00,VWS V14.01,2013-04-04 13:50:00,
2013-04-04 08:56:00,39.8,32.5,30.17,WNW,302,4.0,9.0,75,0.00,,---,0.00,272.00,VWS V14.01,2013-04-04 13:56:00,
2013-04-04 09:00:00,40.1,32.8,30.17,West,271,6.0,9.0,75,0.00,,---,0.00,285.00,VWS V14.01,2013-04-04 14:00:00,
2013-04-04 09:01:00,40.1,32.5,30.17,WNW,295,6.0,7.0,74,0.00,,---,0.00,288.00,VWS V14.01,2013-04-04 14:01:00,
2013-04-04 09:06:00,40.1,32.5,30.17,NW,320,8.0,9.0,74,0.00,,---,0.00,304.00,VWS V14.01,2013-04-04 14:06:00,
2013-04-04 09:11:00,40.5,32.9,30.16,NW,317,4.0,9.0,74,0.00,,---,0.00,322.00,VWS V14.01,2013-04-04 14:11:00,
2013-04-04 09:16:00,40.8,32.8,30.17,NW,317,5.0,9.0,73,0.00,,---,0.00,339.00,VWS V14.01,2013-04-04 14:16:00,
2013-04-04 09:21:00,40.8,32.5,30.17,West,273,4.0,9.0,72,0.00,,---,0.00,357.00,VWS V14.01,2013-04-04 14:21:00,
2013-04-04 09:26:00,41.1,32.8,30.17,WSW,254,4.0,9.0,72,0.00,,---,0.00,371.00,VWS V14.01,2013-04-04 14:26:00,
2013-04-04 09:30:00,41.5,33.2,30.17,NW,322,0.0,9.0,72,0.00,,---,0.00,381.00,VWS V14.01,2013-04-04 14:30:00,
2013-04-04 09:31:00,41.6,33.3,30.17,WNW,294,4.0,5.0,72,0.00,,---,0.00,388.00,VWS V14.01,2013-04-04 14:31:00,
2013-04-04 09:36:00,41.9,33.2,30.17,WNW,298,6.0,9.0,71,0.00,,---,0.00,403.00,VWS V14.01,2013-04-04 14:36:00,
2013-04-04 09:42:00,41.9,33.5,30.16,WNW,284,8.0,9.0,72,0.00,,---,0.00,420.00,VWS V14.01,2013-04-04 14:42:00,
2013-04-04 09:47:00,42.3,33.6,30.16,North,349,2.0,9.0,71,0.00,,---,0.00,432.00,VWS V14.01,2013-04-04 14:47:00,
2013-04-04 09:52:00,42.6,33.5,30.16,WNW,290,5.0,10.0,70,0.00,,---,0.00,452.00,VWS V14.01,2013-04-04 14:52:00,
2013-04-04 09:57:00,42.8,33.7,30.16,West,262,2.0,10.0,70,0.00,,---,0.00,462.00,VWS V14.01,2013-04-04 14:57:00,
2013-04-04 10:00:00,43.2,33.7,30.16,West,264,4.0,10.0,69,0.00,,---,0.00,478.00,VWS V14.01,2013-04-04 15:00:00,
2013-04-04 10:02:00,43.5,34.0,30.16,WSW,241,6.0,6.0,69,0.00,,---,0.00,483.00,VWS V14.01,2013-04-04 15:02:00,
2013-04-04 10:07:00,44.2,34.0,30.16,NW,325,1.0,7.0,67,0.00,,---,0.00,501.00,VWS V14.01,2013-04-04 15:07:00,
2013-04-04 10:12:00,44.8,34.2,30.16,West,259,1.0,7.0,66,0.00,,---,0.00,519.00,VWS V14.01,2013-04-04 15:12:00,
2013-04-04 10:17:00,45.2,33.4,30.16,NW,311,2.0,7.0,63,0.00,,---,0.00,526.00,VWS V14.01,2013-04-04 15:17:00,
2013-04-04 10:22:00,45.4,33.2,30.16,WSW,247,6.0,9.0,62,0.00,,---,0.00,538.00,VWS V14.01,2013-04-04 15:22:00,
2013-04-04 10:27:00,45.4,33.6,30.16,West,265,6.0,9.0,63,0.00,,---,0.00,561.00,VWS V14.01,2013-04-04 15:27:00,
2013-04-04 10:30:00,45.2,33.8,30.16,WSW,249,7.0,9.0,64,0.00,,---,0.00,559.00,VWS V14.01,2013-04-04 15:30:00,
2013-04-04 10:32:00,45.5,34.0,30.16,NW,320,5.0,9.0,64,0.00,,---,0.00,570.00,VWS V14.01,2013-04-04 15:32:00,
2013-04-04 10:37:00,46.0,33.7,30.15,SSW,213,3.0,9.0,62,0.00,,---,0.00,573.00,VWS V14.01,2013-04-04 15:37:00,
2013-04-04 10:42:00,46.7,33.2,30.16,WSW,257,8.0,9.0,59,0.00,,---,0.00,592.00,VWS V14.01,2013-04-04 15:42:00,
2013-04-04 10:47:00,46.5,33.4,30.16,SW,228,2.0,9.0,60,0.00,,---,0.00,610.00,VWS V14.01,2013-04-04 15:47:00,
2013-04-04 10:52:00,47.1,33.1,30.16,WSW,250,4.0,9.0,58,0.00,,---,0.00,631.00,VWS V14.01,2013-04-04 15:52:00,
2013-04-04 10:57:00,47.1,33.1,30.16,West,266,1.0,9.0,58,0.00,,---,0.00,650.00,VWS V14.01,2013-04-04 15:57:00,
2013-04-04 11:00:00,47.3,32.8,30.16,NW,323,8.0,9.0,57,0.00,,---,0.00,663.00,VWS V14.01,2013-04-04 16:00:00,
2013-04-04 11:02:00,47.1,33.1,30.16,West,278,2.0,8.0,58,0.00,,---,0.00,656.00,VWS V14.01,2013-04-04 16:02:00,
2013-04-04 11:07:00,47.6,33.1,30.16,SW,225,2.0,8.0,57,0.00,,---,0.00,682.00,VWS V14.01,2013-04-04 16:07:00,
2013-04-04 11:12:00,48.8,33.8,30.16,SSW,213,2.0,8.0,56,0.00,,---,0.00,694.00,VWS V14.01,2013-04-04 16:12:00,
2013-04-04 11:17:00,48.3,32.9,30.16,West,259,6.0,11.0,55,0.00,,---,0.00,710.00,VWS V14.01,2013-04-04 16:17:00,
2013-04-04 11:22:00,48.5,33.1,30.16,SSW,203,4.0,11.0,55,0.00,,---,0.00,717.00,VWS V14.01,2013-04-04 16:22:00,
2013-04-04 11:27:00,48.3,32.9,30.16,SW,221,6.0,11.0,55,0.00,,---,0.00,712.00,VWS V14.01,2013-04-04 16:27:00,
2013-04-04 11:30:00,48.2,33.3,30.16,WSW,244,3.0,11.0,56,0.00,,---,0.00,719.00,VWS V14.01,2013-04-04 16:30:00,
2013-04-04 11:32:00,48.2,33.3,30.16,SSW,211,3.0,7.0,56,0.00,,---,0.00,722.00,VWS V14.01,2013-04-04 16:32:00,
2013-04-04 11:37:00,49.1,33.7,30.16,WNW,294,4.0,7.0,55,0.00,,---,0.00,715.00,VWS V14.01,2013-04-04 16:37:00,
2013-04-04 11:42:00,49.5,33.6,30.15,WSW,242,5.0,8.0,54,0.00,,---,0.00,742.00,VWS V14.01,2013-04-04 16:42:00,
2013-04-04 11:47:00,49.9,33.0,30.15,West,279,6.0,10.0,52,0.00,,---,0.00,747.00,VWS V14.01,2013-04-04 16:47:00,
2013-04-04 11:53:00,49.6,33.2,30.15,SW,220,6.0,10.0,53,0.00,,---,0.00,773.00,VWS V14.01,2013-04-04 16:53:00,
2013-04-04 11:58:00,49.8,33.8,30.15,SW,225,9.0,10.0,54,0.00,,---,0.00,765.00,VWS V14.01,2013-04-04 16:58:00,
2013-04-04 12:00:00,49.8,32.9,30.14,SSW,206,2.0,10.0,52,0.00,,---,0.00,777.00,VWS V14.01,2013-04-04 17:00:00,
2013-04-04 12:03:00,50.2,33.3,30.14,WSW,239,2.0,8.0,52,0.00,,---,0.00,780.00,VWS V14.01,2013-04-04 17:03:00,
2013-04-04 12:08:00,50.8,33.3,30.14,WSW,257,5.0,10.0,51,0.00,,---,0.00,795.00,VWS V14.01,2013-04-04 17:08:00,
2013-04-04 12:13:00,50.8,32.8,30.14,West,263,2.0,10.0,50,0.00,,---,0.00,800.00,VWS V14.01,2013-04-04 17:13:00,
2013-04-04 12:18:00,51.4,33.4,30.14,WSW,256,1.0,10.0,50,0.00,,---,0.00,798.00,VWS V14.01,2013-04-04 17:18:00,
2013-04-04 12:23:00,51.3,33.3,30.14,WSW,257,5.0,10.0,50,0.00,,---,0.00,798.00,VWS V14.01,2013-04-04 17:23:00,
2013-04-04 12:28:00,51.9,33.4,30.15,West,262,1.0,10.0,49,0.00,,---,0.00,809.00,VWS V14.01,2013-04-04 17:28:00,
2013-04-04 12:30:00,52.2,33.6,30.14,WNW,288,3.0,10.0,49,0.00,,---,0.00,807.00,VWS V14.01,2013-04-04 17:30:00,
2013-04-04 12:33:00,52.3,33.2,30.15,SSW,213,4.0,7.0,48,0.00,,---,0.00,821.00,VWS V14.01,2013-04-04 17:33:00,
2013-04-04 12:38:00,52.5,33.9,30.14,WNW,286,6.0,10.0,49,0.00,,---,0.00,800.00,VWS V14.01,2013-04-04 17:38:00,
2013-04-04 12:43:00,51.7,34.2,30.14,West,279,7.0,11.0,51,0.00,,---,0.00,821.00,VWS V14.01,2013-04-04 17:43:00,
2013-04-04 12:48:00,51.3,34.8,30.14,West,277,5.0,11.0,53,0.00,,---,0.00,826.00,VWS V14.01,2013-04-04 17:48:00,
2013-04-04 12:53:00,51.7,34.7,30.14,North,9,5.0,11.0,52,0.00,,---,0.00,842.00,VWS V14.01,2013-04-04 17:53:00,
2013-04-04 12:58:00,52.6,34.0,30.13,West,277,1.0,11.0,49,0.00,,---,0.00,831.00,VWS V14.01,2013-04-04 17:58:00,
2013-04-04 13:00:00,52.9,33.8,30.13,WNW,295,0.0,11.0,48,0.00,,---,0.00,847.00,VWS V14.01,2013-04-04 18:00:00,
2013-04-04 13:03:00,53.1,34.0,30.12,WNW,293,4.0,6.0,48,0.00,,---,0.00,846.00,VWS V14.01,2013-04-04 18:03:00,
2013-04-04 13:08:00,53.2,34.0,30.12,WSW,241,3.0,6.0,48,0.00,,---,0.00,849.00,VWS V14.01,2013-04-04 18:08:00,
2013-04-04 13:13:00,53.9,34.2,30.11,West,263,2.0,6.0,47,0.00,,---,0.00,863.00,VWS V14.01,2013-04-04 18:13:00,
2013-04-04 13:18:00,54.5,34.2,30.11,West,259,9.0,9.0,46,0.00,,---,0.00,861.00,VWS V14.01,2013-04-04 18:18:00,
2013-04-04 13:23:00,54.7,34.9,30.11,WSW,250,2.0,9.0,47,0.00,,---,0.00,856.00,VWS V14.01,2013-04-04 18:23:00,
2013-04-04 13:28:00,54.4,34.1,30.11,NNE,30,2.0,9.0,46,0.00,,---,0.00,856.00,VWS V14.01,2013-04-04 18:28:00,
2013-04-04 13:30:00,54.4,35.1,30.11,WNW,283,7.0,9.0,48,0.00,,---,0.00,853.00,VWS V14.01,2013-04-04 18:30:00,
2013-04-04 13:33:00,54.1,34.3,30.11,WSW,250,3.0,12.0,47,0.00,,---,0.00,844.00,VWS V14.01,2013-04-04 18:33:00,
2013-04-04 13:38:00,54.2,34.4,30.11,WSW,238,6.0,12.0,47,0.00,,---,0.00,826.00,VWS V14.01,2013-04-04 18:38:00,
2013-04-04 13:43:00,54.2,34.4,30.11,NW,305,5.0,12.0,47,0.00,,---,0.00,837.00,VWS V14.01,2013-04-04 18:43:00,
2013-04-04 13:48:00,54.1,34.3,30.11,NNW,331,4.0,12.0,47,0.00,,---,0.00,823.00,VWS V14.01,2013-04-04 18:48:00,
2013-04-04 13:53:00,54.7,34.3,30.11,NW,325,3.0,12.0,46,0.00,,---,0.00,816.00,VWS V14.01,2013-04-04 18:53:00,
2013-04-04 13:58:00,55.4,34.4,30.10,SW,236,7.0,12.0,45,0.00,,---,0.00,638.00,VWS V14.01,2013-04-04 18:58:00,
2013-04-04 14:00:00,55.3,34.3,30.10,SW,236,6.0,12.0,45,0.00,,---,0.00,638.00,VWS V14.01,2013-04-04 19:00:00,
2013-04-04 14:03:00,55.4,34.4,30.10,WSW,248,0.0,6.0,45,0.00,,---,0.00,86.00,VWS V14.01,2013-04-04 19:03:00,
2013-04-04 14:08:00,56.5,35.4,30.10,WNW,283,4.0,7.0,45,0.00,,---,0.00,65.00,VWS V14.01,2013-04-04 19:08:00,
2013-04-04 14:13:00,56.5,34.9,30.09,SSW,211,6.0,9.0,44,0.00,,---,0.00,62.00,VWS V14.01,2013-04-04 19:13:00,
2013-04-04 14:18:00,56.2,34.6,30.09,WNW,283,1.0,9.0,44,0.00,,---,0.00,62.00,VWS V14.01,2013-04-04 19:18:00,
2013-04-04 14:24:00,56.7,35.6,30.09,South,190,7.0,9.0,45,0.00,,---,0.00,58.00,VWS V14.01,2013-04-04 19:24:00,
2013-04-04 14:29:00,56.9,34.7,30.09,SW,233,3.0,9.0,43,0.00,,---,0.00,58.00,VWS V14.01,2013-04-04 19:29:00,
2013-04-04 14:30:00,56.7,34.5,30.09,West,259,3.0,9.0,43,0.00,,---,0.00,58.00,VWS V14.01,2013-04-04 19:30:00,
2013-04-04 14:34:00,57.0,34.8,30.09,West,259,2.0,9.0,43,0.00,,---,0.00,58.00,VWS V14.01,2013-04-04 19:34:00,
2013-04-04 14:39:00,57.6,35.3,30.08,NNE,24,2.0,9.0,43,0.00,,---,0.00,58.00,VWS V14.01,2013-04-04 19:39:00,
2013-04-04 14:44:00,58.6,35.0,30.08,NE,38,3.0,9.0,41,0.00,,---,0.00,58.00,VWS V14.01,2013-04-04 19:44:00,
2013-04-04 14:49:00,59.2,34.3,30.08,East,84,0.0,9.0,39,0.00,,---,0.00,58.00,VWS V14.01,2013-04-04 19:49:00,
2013-04-04 14:54:00,59.5,34.5,30.08,SW,223,5.0,10.0,39,0.00,,---,0.00,58.00,VWS V14.01,2013-04-04 19:54:00,
2013-04-04 14:59:00,59.2,34.9,30.08,SSW,211,4.0,10.0,40,0.00,,---,0.00,56.00,VWS V14.01,2013-04-04 19:59:00,
2013-04-04 15:00:00,59.2,34.9,30.08,WSW,247,7.0,10.0,40,0.00,,---,0.00,56.00,VWS V14.01,2013-04-04 20:00:00,
2013-04-04 15:04:00,58.7,33.8,30.07,WSW,258,3.0,10.0,39,0.00,,---,0.00,54.00,VWS V14.01,2013-04-04 20:04:00,
2013-04-04 15:09:00,58.9,34.6,30.07,South,191,3.0,10.0,40,0.00,,---,0.00,53.00,VWS V14.01,2013-04-04 20:09:00,
2013-04-04 15:15:00,58.9,34.6,30.07,South,182,2.0,10.0,40,0.00,,---,0.00,53.00,VWS V14.01,2013-04-04 20:15:00,
2013-04-04 15:20:00,59.3,35.0,30.07,WNW,284,8.0,10.0,40,0.00,,---,0.00,53.00,VWS V14.01,2013-04-04 20:20:00,
2013-04-04 15:25:00,58.1,34.5,30.06,SW,227,2.0,11.0,41,0.00,,---,0.00,53.00,VWS V14.01,2013-04-04 20:25:00,
2013-04-04 15:30:00,59.3,33.7,30.06,SSW,208,5.0,11.0,38,0.00,,---,0.00,53.00,VWS V14.01,2013-04-04 20:30:00,
2013-04-04 15:35:00,60.2,33.2,30.06,WSW,250,4.0,7.0,36,0.00,,---,0.00,53.00,VWS V14.01,2013-04-04 20:35:00,
2013-04-04 15:40:00,60.7,33.6,30.06,WNW,301,6.0,7.0,36,0.00,,---,0.00,53.00,VWS V14.01,2013-04-04 20:40:00,
2013-04-04 15:45:00,60.5,32.7,30.06,NW,324,5.0,7.0,35,0.00,,---,0.00,53.00,VWS V14.01,2013-04-04 20:45:00,
2013-04-04 15:50:00,60.5,34.1,30.05,WNW,288,5.0,8.0,37,0.00,,---,0.00,53.00,VWS V14.01,2013-04-04 20:50:00,
2013-04-04 15:55:00,60.4,33.3,30.05,WNW,287,6.0,8.0,36,0.00,,---,0.00,62.00,VWS V14.01,2013-04-04 20:55:00,
2013-04-04 16:00:00,60.4,34.0,30.05,WNW,289,9.0,9.0,37,0.00,,---,0.00,230.00,VWS V14.01,2013-04-04 21:00:00,
2013-04-04 16:05:00,60.4,31.9,30.05,SW,221,4.0,10.0,34,0.00,,---,0.00,378.00,VWS V14.01,2013-04-04 21:05:00,
2013-04-04 16:10:00,60.9,31.6,30.05,West,270,8.0,10.0,33,0.00,,---,0.00,654.00,VWS V14.01,2013-04-04 21:10:00,
2013-04-04 16:15:00,61.0,31.7,30.04,WSW,243,1.0,10.0,33,0.00,,---,0.00,663.00,VWS V14.01,2013-04-04 21:15:00,
2013-04-04 16:20:00,61.2,32.6,30.04,NNW,333,0.0,10.0,34,0.00,,---,0.00,652.00,VWS V14.01,2013-04-04 21:20:00,
2013-04-04 16:25:00,60.9,31.6,30.04,WNW,290,4.0,10.0,33,0.00,,---,0.00,643.00,VWS V14.01,2013-04-04 21:25:00,
2013-04-04 16:30:00,61.3,31.2,30.04,WNW,285,1.0,6.0,32,0.00,,---,0.00,631.00,VWS V14.01,2013-04-04 21:30:00,
2013-04-04 16:35:00,61.6,32.2,30.04,SW,229,3.0,9.0,33,0.00,,---,0.00,622.00,VWS V14.01,2013-04-04 21:35:00,
2013-04-04 16:40:00,61.8,30.1,30.04,West,271,3.0,9.0,30,0.00,,---,0.00,610.00,VWS V14.01,2013-04-04 21:40:00,
2013-04-04 16:45:00,62.0,30.2,30.03,SSW,199,2.0,9.0,30,0.00,,---,0.00,596.00,VWS V14.01,2013-04-04 21:45:00,
2013-04-04 16:50:00,62.7,29.1,30.03,SW,222,7.0,9.0,28,0.00,,---,0.00,580.00,VWS V14.01,2013-04-04 21:50:00,
2013-04-04 16:55:00,62.9,29.3,30.03,South,179,4.0,9.0,28,0.00,,---,0.00,566.00,VWS V14.01,2013-04-04 21:55:00,
2013-04-04 17:00:00,62.9,31.0,30.03,SW,224,2.0,2.0,30,0.00,,---,0.00,550.00,VWS V14.01,2013-04-04 22:00:00,
2013-04-04 17:05:00,63.5,30.7,30.03,South,191,1.0,3.0,29,0.00,,---,0.00,534.00,VWS V14.01,2013-04-04 22:05:00,
2013-04-04 17:10:00,64.3,30.5,30.02,WSW,251,5.0,5.0,28,0.00,,---,0.00,520.00,VWS V14.01,2013-04-04 22:10:00,
2013-04-04 17:15:00,64.2,31.3,30.03,SW,215,6.0,7.0,29,0.00,,---,0.00,508.00,VWS V14.01,2013-04-04 22:15:00,
2013-04-04 17:20:00,63.2,31.3,30.03,SSW,205,6.0,9.0,30,0.00,,---,0.00,492.00,VWS V14.01,2013-04-04 22:20:00,
2013-04-04 17:25:00,62.3,31.3,30.03,SSW,209,5.0,9.0,31,0.00,,---,0.00,478.00,VWS V14.01,2013-04-04 22:25:00,
2013-04-04 17:30:00,62.9,31.8,30.03,South,171,0.0,4.0,31,0.00,,---,0.00,461.00,VWS V14.01,2013-04-04 22:30:00,
2013-04-04 17:35:00,63.5,31.5,30.03,WSW,247,4.0,8.0,30,0.00,,---,0.00,443.00,VWS V14.01,2013-04-04 22:35:00,
2013-04-04 17:41:00,62.9,30.2,30.03,WSW,257,3.0,8.0,29,0.00,,---,0.00,431.00,VWS V14.01,2013-04-04 22:41:00,
2013-04-04 17:46:00,62.9,30.2,30.03,WSW,242,5.0,8.0,29,0.00,,---,0.00,413.00,VWS V14.01,2013-04-04 22:46:00,
2013-04-04 17:51:00,62.9,31.0,30.03,West,265,2.0,8.0,30,0.00,,---,0.00,399.00,VWS V14.01,2013-04-04 22:51:00,
2013-04-04 17:56:00,62.9,31.8,30.03,West,281,1.0,8.0,31,0.00,,---,0.00,383.00,VWS V14.01,2013-04-04 22:56:00,
2013-04-04 18:00:00,63.4,32.3,30.03,West,267,3.0,8.0,31,0.00,,---,0.00,371.00,VWS V14.01,2013-04-04 23:00:00,
2013-04-04 18:01:00,63.5,32.3,30.03,WSW,257,5.0,5.0,31,0.00,,---,0.00,371.00,VWS V14.01,2013-04-04 23:01:00,
2013-04-04 18:06:00,63.7,29.1,30.03,WSW,257,4.0,7.0,27,0.00,,---,0.00,352.00,VWS V14.01,2013-04-04 23:06:00,
2013-04-04 18:11:00,62.7,29.1,30.03,NW,305,4.0,12.0,28,0.00,,---,0.00,323.00,VWS V14.01,2013-04-04 23:11:00,
2013-04-04 18:16:00,62.7,29.1,30.03,NNW,327,8.0,12.0,28,0.00,,---,0.00,276.00,VWS V14.01,2013-04-04 23:16:00,
2013-04-04 18:21:00,62.7,29.1,30.03,WNW,290,10.0,12.0,28,0.00,,---,0.00,323.00,VWS V14.01,2013-04-04 23:21:00,
2013-04-04 18:26:00,62.4,28.9,30.03,NW,304,1.0,12.0,28,0.00,,---,0.00,258.00,VWS V14.01,2013-04-04 23:26:00,
2013-04-04 18:30:00,62.9,29.3,30.03,WSW,254,4.0,12.0,28,0.00,,---,0.00,200.00,VWS V14.01,2013-04-04 23:30:00,
2013-04-04 18:31:00,62.9,29.3,30.03,West,271,4.0,6.0,28,0.00,,---,0.00,160.00,VWS V14.01,2013-04-04 23:31:00,
2013-04-04 18:36:00,63.1,28.6,30.03,West,261,4.0,9.0,27,0.00,,---,0.00,253.00,VWS V14.01,2013-04-04 23:36:00,
2013-04-04 18:41:00,62.7,28.3,30.03,West,278,3.0,9.0,27,0.00,,---,0.00,192.00,VWS V14.01,2013-04-04 23:41:00,
2013-04-04 18:46:00,62.7,29.1,30.03,WNW,297,7.0,9.0,28,0.00,,---,0.00,148.00,VWS V14.01,2013-04-04 23:46:00,
2013-04-04 18:51:00,62.3,29.7,30.03,NW,318,4.0,9.0,29,0.00,,---,0.00,93.00,VWS V14.01,2013-04-04 23:51:00,
2013-04-04 18:56:00,62.3,28.8,30.03,NW,320,0.0,9.0,28,0.00,,---,0.00,95.00,VWS V14.01,2013-04-04 23:56:00,
2013-04-04 19:00:00,62.3,29.7,30.03,SW,234,1.0,9.0,29,0.00,,---,0.00,77.00,VWS V14.01,2013-04-05 00:00:00,
2013-04-04 19:01:00,62.3,29.7,30.03,SW,234,1.0,2.0,29,0.00,,---,0.00,72.00,VWS V14.01,2013-04-05 00:01:00,
2013-04-04 19:06:00,62.1,30.3,30.03,SW,234,1.0,2.0,30,0.00,,---,0.00,125.00,VWS V14.01,2013-04-05 00:06:00,
2013-04-04 19:11:00,62.1,30.3,30.03,SW,234,0.0,5.0,30,0.00,,---,0.00,76.00,VWS V14.01,2013-04-05 00:11:00,
2013-04-04 19:16:00,62.1,30.3,30.03,SW,235,3.0,5.0,30,0.00,,---,0.00,46.00,VWS V14.01,2013-04-05 00:16:00,
2013-04-04 19:21:00,62.1,30.3,30.03,WNW,288,4.0,5.0,30,0.00,,---,0.00,109.00,VWS V14.01,2013-04-05 00:21:00,
2013-04-04 19:27:00,62.0,30.2,30.03,WSW,240,5.0,5.0,30,0.00,,---,0.00,37.00,VWS V14.01,2013-04-05 00:27:00,
2013-04-04 19:30:00,62.0,30.2,30.03,SW,232,3.0,5.0,30,0.00,,---,0.00,35.00,VWS V14.01,2013-04-05 00:30:00,
2013-04-04 19:32:00,61.8,30.1,30.03,SW,232,3.0,4.0,30,0.00,,---,0.00,33.00,VWS V14.01,2013-04-05 00:32:00,
2013-04-04 19:37:00,61.8,30.1,30.03,SW,236,4.0,5.0,30,0.00,,---,0.00,28.00,VWS V14.01,2013-04-05 00:37:00,
2013-04-04 19:42:00,61.8,30.1,30.03,WSW,243,4.0,5.0,30,0.00,,---,0.00,23.00,VWS V14.01,2013-04-05 00:42:00,
2013-04-04 19:47:00,61.6,29.9,30.03,WSW,243,5.0,5.0,30,0.00,,---,0.00,18.00,VWS V14.01,2013-04-05 00:47:00,
2013-04-04 19:52:00,61.5,29.8,30.03,WSW,258,3.0,5.0,30,0.00,,---,0.00,14.00,VWS V14.01,2013-04-05 00:52:00,
2013-04-04 19:57:00,61.3,30.4,30.03,WSW,258,2.0,5.0,31,0.00,,---,0.00,7.00,VWS V14.01,2013-04-05 00:57:00,
2013-04-04 20:00:00,61.3,30.4,30.03,WSW,258,1.0,5.0,31,0.00,,---,0.00,5.00,VWS V14.01,2013-04-05 01:00:00,
2013-04-04 20:02:00,61.2,31.1,30.03,WSW,258,2.0,3.0,32,0.00,,---,0.00,0.00,VWS V14.01,2013-04-05 01:02:00,
2013-04-04 20:07:00,61.0,32.5,30.03,WSW,258,3.0,4.0,34,0.00,,---,0.00,0.00,VWS V14.01,2013-04-05 01:07:00,
2013-04-04 20:12:00,60.5,32.7,30.03,WSW,258,3.0,4.0,35,0.00,,---,0.00,0.00,VWS V14.01,2013-04-05 01:12:00,
2013-04-04 20:17:00,60.2,33.2,30.03,WSW,252,1.0,4.0,36,0.00,,---,0.00,0.00,VWS V14.01,2013-04-05 01:17:00,
2013-04-04 20:22:00,60.1,33.8,30.03,WSW,252,2.0,4.0,37,0.00,,---,0.00,0.00,VWS V14.01,2013-04-05 01:22:00,
2013-04-04 20:27:00,59.8,32.8,30.03,South,173,4.0,6.0,36,0.00,,---,0.00,0.00,VWS V14.01,2013-04-05 01:27:00,
2013-04-04 20:30:00,59.6,32.6,30.03,South,174,5.0,6.0,36,0.00,,---,0.00,0.00,VWS V14.01,2013-04-05 01:30:00,
2013-04-04 20:32:00,59.6,32.6,30.03,South,174,4.0,5.0,36,0.00,,---,0.00,0.00,VWS V14.01,2013-04-05 01:32:00,
2013-04-04 20:37:00,59.3,33.0,30.04,South,174,2.0,5.0,37,0.00,,---,0.00,0.00,VWS V14.01,2013-04-05 01:37:00,
2013-04-04 20:42:00,59.0,33.5,30.04,South,174,1.0,5.0,38,0.00,,---,0.00,0.00,VWS V14.01,2013-04-05 01:42:00,
2013-04-04 20:47:00,58.7,33.2,30.03,South,174,0.0,5.0,38,0.00,,---,0.00,0.00,VWS V14.01,2013-04-05 01:47:00,
2013-04-04 20:52:00,58.4,33.6,30.04,South,174,0.0,5.0,39,0.00,,---,0.00,0.00,VWS V14.01,2013-04-05 01:52:00,
2013-04-04 20:57:00,58.1,33.3,30.04,South,174,4.0,5.0,39,0.00,,---,0.00,0.00,VWS V14.01,2013-04-05 01:57:00,
2013-04-04 21:00:00,57.8,33.0,30.04,South,174,4.0,5.0,39,0.00,,---,0.00,0.00,VWS V14.01,2013-04-05 02:00:00,
2013-04-04 21:03:00,57.6,33.5,30.04,South,174,1.0,4.0,40,0.00,,---,0.00,0.00,VWS V14.01,2013-04-05 02:03:00,
2013-04-04 21:07:00,57.2,33.7,30.04,South,174,4.0,4.0,41,0.00,,---,0.00,0.00,VWS V14.01,2013-04-05 02:07:00,
2013-04-04 21:13:00,56.7,33.9,30.04,South,174,4.0,4.0,42,0.00,,---,0.00,0.00,VWS V14.01,2013-04-05 02:13:00,
2013-04-04 21:18:00,56.3,34.1,30.04,South,174,4.0,4.0,43,0.00,,---,0.00,0.00,VWS V14.01,2013-04-05 02:18:00,
2013-04-04 21:23:00,56.0,34.4,30.05,South,174,5.0,5.0,44,0.00,,---,0.00,0.00,VWS V14.01,2013-04-05 02:23:00,
2013-04-04 21:28:00,55.6,34.6,30.04,South,174,4.0,6.0,45,0.00,,---,0.00,0.00,VWS V14.01,2013-04-05 02:28:00,
2013-04-04 21:30:00,55.4,34.4,30.05,South,174,4.0,6.0,45,0.00,,---,0.00,0.00,VWS V14.01,2013-04-05 02:30:00,
2013-04-04 21:33:00,55.3,34.3,30.05,South,174,4.0,6.0,45,0.00,,---,0.00,0.00,VWS V14.01,2013-04-05 02:33:00,
2013-04-04 21:38:00,55.0,34.6,30.05,South,174,5.0,6.0,46,0.00,,---,0.00,0.00,VWS V14.01,2013-04-05 02:38:00,
2013-04-04 21:43:00,54.7,34.9,30.05,South,174,5.0,6.0,47,0.00,,---,0.00,0.00,VWS V14.01,2013-04-05 02:43:00,
2013-04-04 21:48:00,54.4,35.1,30.05,South,174,4.0,6.0,48,0.00,,---,0.00,0.00,VWS V14.01,2013-04-05 02:48:00,
2013-04-04 21:53:00,54.2,35.0,30.05,South,174,4.0,6.0,48,0.00,,---,0.00,0.00,VWS V14.01,2013-04-05 02:53:00,
2013-04-04 21:58:00,53.9,35.2,30.05,South,174,4.0,6.0,49,0.00,,---,0.00,0.00,VWS V14.01,2013-04-05 02:58:00,
2013-04-04 22:00:00,53.8,35.1,30.06,South,174,4.0,6.0,49,0.00,,---,0.00,0.00,VWS V14.01,2013-04-05 03:00:00,
2013-04-04 22:03:00,53.6,35.4,30.06,South,174,4.0,5.0,50,0.00,,---,0.00,0.00,VWS V14.01,2013-04-05 03:03:00,
2013-04-04 22:08:00,53.3,35.7,30.06,South,174,4.0,6.0,51,0.00,,---,0.00,0.00,VWS V14.01,2013-04-05 03:08:00,
2013-04-04 22:13:00,53.2,35.6,30.06,South,174,6.0,6.0,51,0.00,,---,0.00,0.00,VWS V14.01,2013-04-05 03:13:00,
2013-04-04 22:18:00,53.1,36.0,30.06,South,183,4.0,7.0,52,0.00,,---,0.00,0.00,VWS V14.01,2013-04-05 03:18:00,
2013-04-04 22:23:00,52.9,35.8,30.06,South,190,5.0,7.0,52,0.00,,---,0.00,0.00,VWS V14.01,2013-04-05 03:23:00,
2013-04-04 22:28:00,52.8,35.7,30.06,SSW,192,4.0,7.0,52,0.00,,---,0.00,0.00,VWS V14.01,2013-04-05 03:28:00,
2013-04-04 22:30:00,52.6,35.5,30.06,SSW,192,6.0,7.0,52,0.00,,---,0.00,0.00,VWS V14.01,2013-04-05 03:30:00,
2013-04-04 22:33:00,52.5,35.9,30.06,South,187,4.0,7.0,53,0.00,,---,0.00,0.00,VWS V14.01,2013-04-05 03:33:00,
2013-04-04 22:38:00,52.5,35.9,30.06,South,189,4.0,7.0,53,0.00,,---,0.00,0.00,VWS V14.01,2013-04-05 03:38:00,
2013-04-04 22:43:00,52.3,35.7,30.06,South,189,3.0,7.0,53,0.00,,---,0.00,0.00,VWS V14.01,2013-04-05 03:43:00,
2013-04-04 22:48:00,52.0,35.4,30.06,South,189,3.0,7.0,53,0.00,,---,0.00,0.00,VWS V14.01,2013-04-05 03:48:00,
2013-04-04 22:53:00,52.0,35.9,30.06,South,189,4.0,7.0,54,0.00,,---,0.00,0.00,VWS V14.01,2013-04-05 03:53:00,
2013-04-04 22:58:00,51.7,35.6,30.06,South,189,3.0,7.0,54,0.00,,---,0.00,0.00,VWS V14.01,2013-04-05 03:58:00,
2013-04-04 23:00:00,51.6,35.5,30.06,South,189,5.0,7.0,54,0.00,,---,0.00,0.00,VWS V14.01,2013-04-05 04:00:00,
2013-04-04 23:01:00,51.4,35.8,30.06,South,189,4.0,6.0,55,0.00,,---,0.00,0.00,VWS V14.01,2013-04-05 04:01:00,
2013-04-04 23:06:00,51.1,36.8,30.06,SSW,192,2.0,6.0,58,0.00,,---,0.00,0.00,VWS V14.01,2013-04-05 04:06:00,
2013-04-04 23:11:00,51.0,35.9,30.06,SSW,192,2.0,6.0,56,0.00,,---,0.00,0.00,VWS V14.01,2013-04-05 04:11:00,
2013-04-04 23:17:00,50.7,36.0,30.07,SSW,192,5.0,6.0,57,0.00,,---,0.00,0.00,VWS V14.01,2013-04-05 04:17:00,
2013-04-04 23:22:00,50.4,35.8,30.06,SSW,192,4.0,6.0,57,0.00,,---,0.00,0.00,VWS V14.01,2013-04-05 04:22:00,
2013-04-04 23:27:00,50.1,35.9,30.06,South,186,6.0,8.0,58,0.00,,---,0.00,0.00,VWS V14.01,2013-04-05 04:27:00,
2013-04-04 23:30:00,49.9,35.7,30.06,South,188,3.0,8.0,58,0.00,,---,0.00,0.00,VWS V14.01,2013-04-05 04:30:00,
2013-04-04 23:32:00,49.9,35.7,30.06,South,188,5.0,7.0,58,0.00,,---,0.00,0.00,VWS V14.01,2013-04-05 04:32:00,
2013-04-04 23:37:00,49.8,36.1,30.06,South,188,4.0,7.0,59,0.00,,---,0.00,0.00,VWS V14.01,2013-04-05 04:37:00,
2013-04-04 23:42:00,49.4,36.1,30.06,South,191,5.0,8.0,60,0.00,,---,0.00,0.00,VWS V14.01,2013-04-05 04:42:00,
2013-04-04 23:47:00,49.1,36.2,30.06,South,187,4.0,8.0,61,0.00,,---,0.00,0.00,VWS V14.01,2013-04-05 04:47:00,
2013-04-04 23:52:00,48.8,36.0,30.06,South,187,4.0,8.0,61,0.00,,---,0.00,0.00,VWS V14.01,2013-04-05 04:52:00,
2013-04-04 23:57:00,48.6,36.2,30.06,South,187,2.0,8.0,62,0.00,,---,0.00,0.00,VWS V14.01,2013-04-05 04:57:00,